[[{"header":{"parameterUnit":"m.s-1","parameterCategory":1,"la1":30.2991,"la2":30.254,"lo1":-89.0895,"lo2":-89.0444,"dy":0.0017,"dx":0.0017,"nx":28,"ny":28,"refTime":"2023-07-25T09:00:00:Z","depth":0,"parameterNumber":2,"parameterNumberName":"U-component_of_WINDS"},"data":[0,0,0,0,0,0,0,0,0,0,0,0,0,0,0,0,0,0,0,0,0,0,0,0,0,0,0,0,0,0,0,0,0,0,0,0,0,0,0,0,0,0,0,0,0,0,0,0,0,0,0,0,0,0,0,0,0,0,0.8798,0.88,0,0.8977,0.8979,0.8981,0.9016,0.9015,0.9013,0.9012,0.9199,0.9205,0.9211,0,0,0,0,0,0,0,0,0,0,0,0,0,0.8489,0.8494,0.8798,0.88,0.8802,0.8976,0.8979,0.8981,0.9016,0.9015,0.9013,0.9011,0.9197,0.9204,0.9212,0,0,0,0,0,0,0,0,0,0,0,0,0,0.8641,0.8496,0.8797,0.8841,0.8846,0.8976,0.8979,0.8982,0.9017,0.9015,0.9012,0.901,0.9194,0.9203,0.9213,0.9313,0,0,0.9242,0.9246,0,0,0,0,0,0,0,0,0.8632,0.8652,0.8832,0.8838,0.8844,0.8972,0.8939,0.9093,0.9017,0.8952,0.9012,0.9009,0.9125,0.914,0.9179,0.9322,0.933,0.9242,0.9248,0.9252,0.9255,0,0,0,0,0,0,0,0.8622,0.8645,0.8869,0.8835,0.8842,0.8852,0.8871,0.8968,0.9049,0.8958,0.8961,0.8981,0.9128,0.9169,0.9183,0.9333,0.9242,0.9251,0.9256,0.926,0.9566,0.9568,0,0,0,0,0,0,0.8603,0.8636,0.8863,0.8874,0.8731,0.8859,0.8881,0.8933,0.9047,0.9063,0.8983,0.8982,0.9154,0.9172,0.919,0.9314,0.9252,0.9261,0.9266,0.9563,0.9566,0.9569,0,0,0,0,0,0,0.8596,0.8623,0.8856,0.8756,0.8786,0.8867,0.8925,0.8938,0.8979,0.9066,0.9081,0.901,0.9153,0.9177,0.9282,0.9321,0.9265,0.9274,0.9561,0.9564,0.9568,0.9563,0,0,0,0,0,0,0.8587,0.862,0.8659,0.8756,0.8791,0.8944,0.8928,0.8943,0.8995,0.8995,0.9096,0.911,0.9153,0.9267,0.9291,0.9333,0.9281,0.9557,0.9562,0.9567,0.956,0.9566,0.9571,0,0,0,0,0,0.8576,0.8652,0.8661,0.8688,0.8841,0.8946,0.8966,0.9013,0.8998,0.9037,0.9093,0.9107,0.9313,0.9278,0.9305,0.935,0.9555,0.9561,0.9566,0.9557,0.9565,0.9571,0,0,0,0,0,0,0.8558,0.8665,0.8676,0.8786,0.8856,0.8952,0.9003,0.902,0.9097,0.9095,0.9151,0.9174,0.9275,0.9323,0.9283,0.9452,0.9433,0.9444,0.9417,0.9425,0.943,0.9416,0.9289,0,0,0,0,0,0.8567,0.8642,0.8732,0.882,0.8854,0.8922,0.897,0.9,0.9076,0.9106,0.917,0.9244,0.9325,0.9378,0.9458,0.9567,0.9589,0.9611,0.9617,0.9621,0.963,0.969,0.9701,0.9587,0.9587,0.9587,0,0,0.8586,0.8653,0.8698,0.8818,0.8876,0.8953,0.8947,0.903,0.9088,0.912,0.9222,0.9271,0.9357,0.9464,0.9515,0.9508,0.9666,0.9628,0.9631,0.9638,0.9697,0.9707,0.9717,0.9591,0.959,0.959,0,0,0.8659,0.8718,0.8797,0.8855,0.8942,0.8987,0.9006,0.9099,0.9132,0.9235,0.926,0.933,0.9469,0.9529,0.9578,0.9672,0.9688,0.9697,0.9726,0.9784,0.9793,0.9801,0.9833,0.9845,0.9705,0.9705,0.9705,0,0.8672,0.8788,0.8835,0.8916,0.8968,0.8998,0.9078,0.9133,0.9242,0.9278,0.9268,0.9441,0.9502,0.9622,0.9645,0.9684,0.9707,0.9685,0.9787,0.9796,0.9804,0.9836,0.9848,0.9706,0.9706,0.9706,0.9706,0,0.8799,0.8879,0.8932,0.9035,0.9093,0.9173,0.9233,0.9286,0.931,0.9356,0.946,0.9534,0.9628,0.9659,0.9685,0.9783,0.9776,0.9776,0.9758,0.9815,0.9845,0.9858,0.9706,0.9706,0.9706,0.9706,0,0,0.8867,0.8993,0.9012,0.9059,0.9157,0.922,0.9302,0.9392,0.9436,0.9511,0.958,0.9696,0.9696,0.9751,0.9784,0.9835,0.9903,0.9829,0.9832,0.9839,1.0015,1.0013,1.0026,0.9914,0.9916,0.9918,1.0007,0,0.8951,0.9096,0.914,0.9262,0.9336,0.9365,0.9436,0.9504,0.9548,0.9618,0.9668,0.9749,0.9744,0.9777,0.9828,0.9883,0.9939,0.9878,0.9979,0.9982,0.9955,1.0043,1.0042,1.0122,1.0019,1.0021,1.0023,0,0.9069,0.9144,0.9272,0.9359,0.9392,0.9455,0.954,0.9607,0.9685,0.9714,0.9774,0.9802,0.9888,0.9864,0.9984,0.9941,0.9985,1.0018,1.0022,1.0033,1.0005,1.0055,1.0149,1.0161,1.0043,1.0041,1.004,0,0.9104,0.9237,0.933,0.937,0.9474,0.9517,0.9563,0.9638,0.9689,0.9765,0.9798,0.9883,0.993,0.9995,1.0045,1.0023,1.0159,1.014,1.0185,1.0184,1.0213,1.021,1.0314,1.0242,1.0242,1.0241,1.0241,0,0.9194,0.9271,0.9347,0.9405,0.9492,0.9542,0.9627,0.9674,0.9741,0.9808,0.9839,0.9902,0.9965,1.0036,1.0075,1.0167,1.0188,1.0214,1.0223,1.0211,1.0207,1.024,1.0235,1.0245,1.0244,1.0243,1.0243,0,0.9248,0.9302,0.9406,0.9495,0.952,0.958,0.9657,0.9714,0.9759,0.9844,0.9866,0.9938,1.0023,1.0079,1.0188,1.0215,1.0314,1.0323,1.0287,1.0292,1.0333,1.0328,1.0462,1.0481,1.0396,1.0397,1.0398,0,0.9301,0.936,0.9456,0.9502,0.9548,0.9623,0.9675,0.9726,0.9779,0.9871,0.9917,1.0003,1.0075,1.0209,1.0271,1.0355,1.0365,1.0406,1.0378,1.0363,1.0365,1.036,1.0366,1.041,1.0411,1.0412,1.0412,0,0.9389,0.9412,0.9485,0.9567,0.9627,0.9695,0.9763,0.9799,0.9862,0.992,1.0006,1.0062,1.0172,1.0258,1.0346,1.0394,1.0414,1.042,1.0435,1.0422,1.0398,1.0411,1.0299,1.0417,1.0417,1.0416,1.0416,1.0416,0.9444,0.9497,0.9572,0.9652,0.9708,0.977,0.9827,0.9878,0.9951,1.0044,1.007,1.016,1.0235,1.0356,1.0405,1.0476,1.0472,1.0493,1.0499,1.0503,1.0502,1.0387,1.0492,1.0492,1.0492,1.0492,1.0492,0,0.9532,0.9581,0.9654,0.9746,0.9809,0.9821,0.9896,0.9947,1.0026,1.0094,1.0163,1.0261,1.0344,1.0412,1.0497,1.0541,1.0552,1.0561,1.0558,1.0569,1.0502,1.048,1.0551,1.0551,1.0551,1.0551,1.0551,1.0551,0.9585,0.9676,0.9708,0.9827,0.9876,0.9963,1.0005,1.0062,1.0116,1.0224,1.0293,1.0336,1.0404,1.0494,1.057,1.0587,1.0617,1.0624,1.0644,1.058,1.0574,1.0567,1.0547,1.0631,1.0631,1.0705,1.0705,1.0706]},{"header":{"parameterUnit":"m.s-1","parameterCategory":1,"la1":30.2991,"la2":30.254,"lo1":-89.0895,"lo2":-89.0444,"dy":0.0017,"dx":0.0017,"nx":28,"ny":28,"refTime":"2023-07-25T09:00:00:Z","depth":0,"parameterNumber":3,"parameterNumberName":"V-component_of_WINDS"},"data":[0,0,0,0,0,0,0,0,0,0,0,0,0,0,0,0,0,0,0,0,0,0,0,0,0,0,0,0,0,0,0,0,0,0,0,0,0,0,0,0,0,0,0,0,0,0,0,0,0,0,0,0,0,0,0,0,0,0,2.8276,2.8275,0,2.8169,2.8167,2.8166,2.8163,2.8165,2.8166,2.8167,2.8046,2.8042,2.8038,0,0,0,0,0,0,0,0,0,0,0,0,0,2.8466,2.8463,2.8276,2.8274,2.8273,2.8169,2.8167,2.8166,2.8163,2.8165,2.8166,2.8168,2.8048,2.8043,2.8037,0,0,0,0,0,0,0,0,0,0,0,0,0,2.8374,2.8462,2.8276,2.8259,2.8257,2.8169,2.8167,2.8166,2.8163,2.8165,2.8167,2.8169,2.805,2.8043,2.8036,2.7955,0,0,2.8016,2.8013,0,0,0,0,0,0,0,0,2.8379,2.8367,2.8263,2.826,2.8257,2.8182,2.819,2.8094,2.8162,2.8198,2.8167,2.817,2.8089,2.8079,2.8054,2.7949,2.7944,2.8015,2.8011,2.8008,2.8007,0,0,0,0,0,0,0,2.8385,2.8371,2.8233,2.8262,2.8258,2.8254,2.8243,2.8172,2.8133,2.8195,2.8195,2.8183,2.8088,2.8061,2.8051,2.7942,2.8016,2.801,2.8005,2.8003,2.7761,2.7759,0,0,0,0,0,0,2.8397,2.8377,2.8236,2.823,2.8325,2.8249,2.8236,2.8204,2.8134,2.8126,2.8181,2.8183,2.8071,2.8059,2.8047,2.7945,2.8008,2.8002,2.7998,2.7764,2.7761,2.7758,0,0,0,0,0,0,2.8401,2.8384,2.8241,2.8303,2.8285,2.8243,2.8207,2.8201,2.8174,2.8124,2.8115,2.8162,2.8072,2.8057,2.7978,2.7941,2.7999,2.7993,2.7766,2.7763,2.7759,2.7741,0,0,0,0,0,0,2.8406,2.8386,2.8357,2.8303,2.8281,2.8177,2.8204,2.8197,2.8164,2.8165,2.8103,2.8094,2.8073,2.7988,2.7971,2.7933,2.7988,2.777,2.7765,2.7761,2.7745,2.7738,2.7731,0,0,0,0,0,2.8413,2.8354,2.8356,2.8339,2.8245,2.8175,2.8162,2.8142,2.8161,2.8129,2.8097,2.8096,2.7948,2.798,2.7961,2.792,2.7772,2.7766,2.7761,2.7748,2.7739,2.7732,0,0,0,0,0,0,2.8401,2.8347,2.8348,2.827,2.8228,2.8175,2.8135,2.8133,2.8081,2.8084,2.8057,2.8043,2.7964,2.7934,2.7971,2.7836,2.7862,2.7852,2.7858,2.7849,2.7843,2.785,2.7982,0,0,0,0,0,2.8391,2.8342,2.8295,2.8231,2.821,2.8176,2.8145,2.8133,2.8086,2.8067,2.8028,2.798,2.7922,2.7884,2.7828,2.7741,2.7726,2.7703,2.7697,2.7691,2.7682,2.7632,2.762,2.774,2.7741,2.7741,0,0,2.8366,2.833,2.83,2.8228,2.8193,2.8139,2.8161,2.8103,2.8062,2.8056,2.7981,2.7951,2.7894,2.7811,2.7772,2.7783,2.7646,2.7684,2.768,2.7674,2.7625,2.7613,2.7603,2.7737,2.7738,2.7738,0,0,2.8294,2.8263,2.8206,2.8172,2.812,2.8098,2.8085,2.8032,2.8013,2.7937,2.7931,2.788,2.7782,2.7741,2.7708,2.762,2.7616,2.7602,2.7565,2.7516,2.7507,2.7498,2.7464,2.7453,2.7594,2.7594,2.7594,0,2.8269,2.8191,2.8175,2.8118,2.8085,2.8082,2.8021,2.7987,2.7919,2.7894,2.7909,2.7785,2.7747,2.7653,2.7632,2.7605,2.7586,2.7608,2.751,2.7501,2.7493,2.746,2.7448,2.7593,2.7593,2.7593,2.7593,0,2.8162,2.8108,2.8067,2.8005,2.7967,2.7908,2.788,2.7843,2.7834,2.7809,2.773,2.7684,2.7619,2.7596,2.7585,2.7499,2.7507,2.7517,2.7541,2.748,2.7449,2.7436,2.7591,2.7591,2.7592,2.7592,0,0,2.8078,2.8009,2.7994,2.7965,2.7908,2.7864,2.7804,2.7743,2.7711,2.7663,2.7609,2.7526,2.7535,2.7496,2.7481,2.7438,2.7369,2.7452,2.745,2.7436,2.7268,2.726,2.7246,2.7367,2.7365,2.7363,2.7272,0,2.7998,2.7895,2.7878,2.7786,2.7734,2.773,2.7677,2.7634,2.7609,2.7558,2.7529,2.747,2.7486,2.7463,2.7421,2.7386,2.7334,2.7393,2.7312,2.731,2.7325,2.723,2.7222,2.7138,2.7259,2.7257,2.7256,0,2.789,2.7844,2.7748,2.7697,2.7675,2.7628,2.757,2.7523,2.7473,2.7458,2.7416,2.7406,2.7338,2.7368,2.7274,2.7314,2.728,2.7258,2.7254,2.7244,2.7278,2.7215,2.7111,2.7098,2.7237,2.7238,2.724,0,2.7836,2.7749,2.768,2.7656,2.7596,2.7562,2.7535,2.7488,2.7452,2.74,2.7376,2.7315,2.7282,2.7233,2.7206,2.7231,2.7112,2.714,2.7094,2.7094,2.7067,2.7069,2.6954,2.7049,2.7049,2.7049,2.705,0,2.7747,2.7687,2.7655,2.7612,2.7544,2.7524,2.7456,2.7429,2.7387,2.7335,2.7327,2.7278,2.7246,2.7191,2.7169,2.7092,2.7077,2.706,2.7054,2.7059,2.7061,2.7035,2.7039,2.7046,2.7047,2.7047,2.7048,0,2.7674,2.7651,2.7574,2.7525,2.7511,2.7463,2.7418,2.7374,2.735,2.7285,2.7268,2.7228,2.7163,2.7132,2.705,2.7035,2.6948,2.6947,2.6965,2.6963,2.6917,2.6921,2.678,2.6759,2.687,2.6869,2.6868,0,2.7618,2.7573,2.7519,2.7486,2.7459,2.7406,2.737,2.7348,2.731,2.725,2.7212,2.7148,2.7096,2.6991,2.6952,2.6889,2.6885,2.684,2.6875,2.6882,2.6881,2.6884,2.6878,2.6833,2.6832,2.6831,2.683,0,2.752,2.7511,2.7462,2.7408,2.7367,2.7322,2.7278,2.725,2.722,2.7178,2.7114,2.7073,2.6992,2.6926,2.6861,2.6828,2.6822,2.682,2.6805,2.6809,2.6821,2.6812,2.6946,2.6823,2.6823,2.6824,2.6824,2.6825,2.7452,2.7411,2.7367,2.7312,2.7278,2.7237,2.7193,2.7164,2.7112,2.7046,2.7035,2.6966,2.6915,2.6827,2.6792,2.6735,2.6744,2.6724,2.6718,2.6713,2.671,2.6833,2.6723,2.6723,2.6723,2.6723,2.6723,0,2.7352,2.7324,2.7274,2.7214,2.717,2.7174,2.7125,2.7086,2.7027,2.6982,2.6931,2.6856,2.6793,2.675,2.6684,2.6647,2.6642,2.663,2.6631,2.6623,2.6706,2.6724,2.6635,2.6635,2.6635,2.6635,2.6635,2.6635,2.7294,2.7225,2.721,2.7122,2.7093,2.7029,2.7,2.6961,2.6925,2.6843,2.6792,2.6765,2.6719,2.6651,2.6592,2.658,2.6555,2.6543,2.6531,2.6608,2.6618,2.6626,2.6643,2.6538,2.6538,2.6452,2.6452,2.6451]}]]